WZZ9315 UKOO-UKHH

Flight info

Callsign WZZ9315
Flight time 1h 1m
Altitude 35000
Route MOKAD M987 TOVPU L4 ROKOX
Aircraft A321/M-SDE3FGHIRWY/LB1

Departure

Time 2026-04-24 12:56
Airport Odesa International Airport (UKOO)

Arrival

Time 2026-04-24 13:57
Airport Kharkiv International Airport (UKHH)
Time Latitude Longitude Altitude Speed Heading
2026-04-24 12:22 46.44171 30.67182 173 ft 0 kts 259°
2026-04-24 12:44 46.44172 30.67187 176 ft 3 kts 259°
2026-04-24 12:45 46.44178 30.67224 173 ft 4 kts 246°
2026-04-24 12:45 46.44192 30.67256 173 ft 4 kts 223°
2026-04-24 12:45 46.44212 30.67273 173 ft 3 kts 173°
2026-04-24 12:45 46.44220 30.67272 173 ft 0 kts 169°
2026-04-24 12:47 46.44219 30.67272 173 ft 1 kts 169°
2026-04-24 12:48 46.44201 30.67276 173 ft 6 kts 169°
2026-04-24 12:48 46.44158 30.67288 173 ft 7 kts 169°
2026-04-24 12:48 46.44102 30.67303 173 ft 11 kts 169°
2026-04-24 12:48 46.44013 30.67326 173 ft 14 kts 169°
2026-04-24 12:49 46.43938 30.67364 173 ft 10 kts 130°
2026-04-24 12:49 46.43936 30.67462 173 ft 10 kts 99°
2026-04-24 12:49 46.43881 30.67515 173 ft 10 kts 161°
2026-04-24 12:49 46.43807 30.67549 173 ft 13 kts 163°
2026-04-24 12:50 46.43698 30.67598 173 ft 18 kts 163°
2026-04-24 12:50 46.43568 30.67655 173 ft 21 kts 163°
2026-04-24 12:50 46.43428 30.67717 173 ft 21 kts 163°
2026-04-24 12:50 46.43287 30.67777 173 ft 22 kts 164°
2026-04-24 12:51 46.43143 30.67839 173 ft 22 kts 163°
2026-04-24 12:51 46.42995 30.67902 173 ft 23 kts 163°
2026-04-24 12:51 46.42834 30.67970 173 ft 26 kts 163°
2026-04-24 12:51 46.42658 30.68046 173 ft 27 kts 164°
2026-04-24 12:52 46.42479 30.68121 173 ft 27 kts 163°
2026-04-24 12:52 46.42302 30.68197 173 ft 26 kts 163°
2026-04-24 12:52 46.42126 30.68271 173 ft 26 kts 163°
2026-04-24 12:52 46.41951 30.68346 173 ft 26 kts 163°
2026-04-24 12:53 46.41776 30.68421 173 ft 27 kts 163°
2026-04-24 12:53 46.41609 30.68492 173 ft 16 kts 163°
2026-04-24 12:53 46.41544 30.68468 173 ft 8 kts 255°
2026-04-24 12:53 46.41525 30.68387 173 ft 9 kts 251°
2026-04-24 12:54 46.41499 30.68273 173 ft 14 kts 252°
2026-04-24 12:54 46.41478 30.68131 173 ft 15 kts 256°
2026-04-24 12:54 46.41448 30.67988 174 ft 15 kts 253°
2026-04-24 12:54 46.41446 30.67861 174 ft 12 kts 309°
2026-04-24 12:55 46.41518 30.67813 176 ft 12 kts 343°
2026-04-24 12:55 46.41683 30.67741 174 ft 53 kts 343°
2026-04-24 12:55 46.42261 30.67492 172 ft 118 kts 343°
2026-04-24 12:55 46.43216 30.67074 243 ft 160 kts 341°
2026-04-24 12:56 46.44247 30.66636 972 ft 152 kts 339°
2026-04-24 12:56 46.45257 30.66198 1738 ft 151 kts 338°
2026-04-24 12:56 46.46293 30.65742 2253 ft 164 kts 338°
2026-04-24 12:56 46.47464 30.65222 2631 ft 187 kts 339°
2026-04-24 12:57 46.48771 30.64643 2888 ft 207 kts 339°
2026-04-24 12:57 46.50229 30.64001 3044 ft 232 kts 340°
2026-04-24 12:57 46.51819 30.63308 3450 ft 248 kts 340°
2026-04-24 12:57 46.53491 30.62587 4163 ft 252 kts 340°
2026-04-24 12:58 46.55199 30.61939 4919 ft 257 kts 350°
2026-04-24 12:58 46.56980 30.62410 5601 ft 271 kts 25°
2026-04-24 12:58 46.58340 30.64350 6331 ft 284 kts 58°
2026-04-24 12:58 46.59037 30.67064 7044 ft 290 kts 73°
2026-04-24 12:59 46.59421 30.69965 7763 ft 294 kts 76°
2026-04-24 12:59 46.59742 30.72869 8493 ft 296 kts 75°
2026-04-24 12:59 46.60121 30.75849 9237 ft 297 kts 72°
2026-04-24 12:59 46.60660 30.78696 9899 ft 295 kts 62°
2026-04-24 13:00 46.61429 30.81504 10283 ft 308 kts 60°
2026-04-24 13:00 46.62311 30.84460 10430 ft 329 kts 59°
2026-04-24 13:00 46.63280 30.87590 10554 ft 349 kts 59°
2026-04-24 13:00 46.64299 30.90868 10929 ft 360 kts 59°
2026-04-24 13:01 46.65329 30.94214 11493 ft 365 kts 60°
2026-04-24 13:01 46.66361 30.97611 12060 ft 369 kts 60°
2026-04-24 13:01 46.67401 31.01054 12677 ft 374 kts 60°
2026-04-24 13:01 46.68436 31.04494 13264 ft 378 kts 60°
2026-04-24 13:02 46.69494 31.08013 13838 ft 382 kts 59°
2026-04-24 13:02 46.70571 31.11569 14404 ft 385 kts 59°
2026-04-24 13:02 46.71660 31.15149 14973 ft 388 kts 59°
2026-04-24 13:02 46.72754 31.18750 15559 ft 389 kts 59°
2026-04-24 13:03 46.73853 31.22369 16161 ft 391 kts 59°
2026-04-24 13:03 46.74954 31.26009 16746 ft 393 kts 59°
2026-04-24 13:03 46.76062 31.29669 17330 ft 396 kts 59°
2026-04-24 13:03 46.77167 31.33295 17899 ft 396 kts 57°
2026-04-24 13:04 46.78537 31.36744 18408 ft 390 kts 47°
2026-04-24 13:04 46.80138 31.39939 18913 ft 391 kts 46°
2026-04-24 13:04 46.81746 31.43149 19430 ft 393 kts 46°
2026-04-24 13:04 46.83358 31.46382 19963 ft 395 kts 46°
2026-04-24 13:05 46.84967 31.49634 20457 ft 397 kts 46°
2026-04-24 13:05 46.86585 31.52916 20940 ft 399 kts 46°
2026-04-24 13:05 46.88214 31.56222 21407 ft 401 kts 46°
2026-04-24 13:05 46.89845 31.59530 21860 ft 403 kts 46°
2026-04-24 13:06 46.91466 31.62816 22321 ft 405 kts 46°
2026-04-24 13:06 46.93115 31.66166 22762 ft 407 kts 46°
2026-04-24 13:06 46.94771 31.69535 23197 ft 409 kts 46°
2026-04-24 13:06 46.96435 31.72922 23581 ft 411 kts 45°
2026-04-24 13:07 46.98105 31.76322 23958 ft 412 kts 45°
2026-04-24 13:07 46.99776 31.79727 24422 ft 412 kts 45°
2026-04-24 13:07 47.01445 31.83137 24821 ft 412 kts 45°
2026-04-24 13:07 47.03134 31.86522 25211 ft 409 kts 41°
2026-04-24 13:08 47.05053 31.89528 25574 ft 400 kts 33°
2026-04-24 13:08 47.07108 31.92168 25941 ft 399 kts 32°
2026-04-24 13:08 47.09200 31.94848 26325 ft 400 kts 32°
2026-04-24 13:09 47.13388 32.00237 27023 ft 401 kts 32°
2026-04-24 13:09 47.15486 32.02944 27411 ft 402 kts 32°
2026-04-24 13:09 47.17588 32.05659 27762 ft 403 kts 32°
2026-04-24 13:09 47.19693 32.08384 28091 ft 404 kts 32°
2026-04-24 13:10 47.21801 32.11122 28428 ft 405 kts 32°
2026-04-24 13:10 47.23881 32.13825 28752 ft 406 kts 32°
2026-04-24 13:10 47.25992 32.16569 29192 ft 404 kts 32°
2026-04-24 13:10 47.28087 32.19300 29669 ft 401 kts 32°
2026-04-24 13:11 47.30167 32.22016 30106 ft 398 kts 32°
2026-04-24 13:11 47.32240 32.24719 30486 ft 398 kts 32°
2026-04-24 13:11 47.34321 32.27427 30691 ft 400 kts 32°
2026-04-24 13:11 47.36413 32.30145 30943 ft 401 kts 32°
2026-04-24 13:12 47.38509 32.32877 31200 ft 403 kts 33°
2026-04-24 13:12 47.40577 32.35588 31453 ft 403 kts 33°
2026-04-24 13:12 47.42676 32.38344 31699 ft 404 kts 33°
2026-04-24 13:12 47.44779 32.41105 31966 ft 405 kts 33°
2026-04-24 13:13 47.46885 32.43873 32221 ft 405 kts 33°
2026-04-24 13:13 47.48994 32.46646 32452 ft 406 kts 33°
2026-04-24 13:13 47.51106 32.49425 32682 ft 409 kts 33°
2026-04-24 13:13 47.53237 32.52225 32865 ft 411 kts 34°
2026-04-24 13:14 47.55374 32.55037 33094 ft 411 kts 34°
2026-04-24 13:14 47.57514 32.57859 33318 ft 412 kts 34°
2026-04-24 13:14 47.59655 32.60692 33547 ft 413 kts 34°
2026-04-24 13:14 47.61771 32.63496 33788 ft 414 kts 34°
2026-04-24 13:15 47.63918 32.66345 33972 ft 415 kts 34°
2026-04-24 13:15 47.66067 32.69203 34152 ft 415 kts 34°
2026-04-24 13:15 47.68223 32.72070 34324 ft 417 kts 34°
2026-04-24 13:15 47.70392 32.74953 34451 ft 420 kts 35°
2026-04-24 13:16 47.72572 32.77854 34571 ft 422 kts 35°
2026-04-24 13:16 47.74752 32.80764 34740 ft 423 kts 35°
2026-04-24 13:16 47.79113 32.86591 34842 ft 425 kts 35°
2026-04-24 13:17 47.83529 32.92438 34841 ft 425 kts 35°
2026-04-24 13:17 47.87968 32.98294 34837 ft 427 kts 35°
2026-04-24 13:18 47.92408 33.04207 34835 ft 428 kts 35°
2026-04-24 13:18 47.96815 33.10103 34837 ft 428 kts 35°
2026-04-24 13:19 48.01251 33.16039 34840 ft 429 kts 35°
2026-04-24 13:19 48.05640 33.22121 34857 ft 435 kts 42°
2026-04-24 13:20 48.09616 33.28991 34842 ft 437 kts 43°
2026-04-24 13:20 48.13571 33.35850 34842 ft 439 kts 43°
2026-04-24 13:21 48.17554 33.42780 34841 ft 439 kts 43°
2026-04-24 13:21 48.21540 33.49730 34853 ft 440 kts 43°
2026-04-24 13:22 48.25532 33.56702 34849 ft 441 kts 43°
2026-04-24 13:22 48.29512 33.63743 34824 ft 444 kts 44°
2026-04-24 13:23 48.33438 33.70852 34816 ft 446 kts 45°
2026-04-24 13:23 48.37395 33.78046 34817 ft 447 kts 44°
2026-04-24 13:24 48.41367 33.85242 34823 ft 447 kts 44°
2026-04-24 13:24 48.45343 33.92447 34826 ft 447 kts 44°
2026-04-24 13:25 48.49285 33.99618 34827 ft 447 kts 45°
2026-04-24 13:25 48.53230 34.06823 34822 ft 444 kts 45°
2026-04-24 13:26 48.57139 34.13978 34781 ft 440 kts 45°
2026-04-24 13:26 48.61010 34.21085 34775 ft 436 kts 45°
2026-04-24 13:27 48.64807 34.28079 34815 ft 430 kts 44°
2026-04-24 13:27 48.68753 34.34798 34812 ft 424 kts 41°
2026-04-24 13:28 48.72796 34.41239 34799 ft 420 kts 41°
2026-04-24 13:28 48.76796 34.47666 34799 ft 422 kts 41°
2026-04-24 13:29 48.78784 34.50900 34425 ft 429 kts 41°
2026-04-24 13:29 48.80834 34.54260 33535 ft 439 kts 42°
2026-04-24 13:29 48.82911 34.57698 32747 ft 442 kts 42°
2026-04-24 13:29 48.84978 34.61142 32141 ft 442 kts 42°
2026-04-24 13:30 48.87046 34.64595 31509 ft 442 kts 42°
2026-04-24 13:30 48.89110 34.68038 30983 ft 439 kts 42°
2026-04-24 13:30 48.91151 34.71452 30556 ft 434 kts 41°
2026-04-24 13:30 48.93171 34.74825 30107 ft 429 kts 41°
2026-04-24 13:31 48.95172 34.78157 29610 ft 424 kts 41°
2026-04-24 13:31 48.97130 34.81410 29038 ft 420 kts 41°
2026-04-24 13:31 48.99093 34.84681 28465 ft 417 kts 41°
2026-04-24 13:31 49.01038 34.87929 27894 ft 414 kts 42°
2026-04-24 13:32 49.02976 34.91142 27298 ft 411 kts 41°
2026-04-24 13:32 49.04961 34.94244 26742 ft 407 kts 39°
2026-04-24 13:32 49.06975 34.97243 26191 ft 403 kts 38°
2026-04-24 13:32 49.08996 35.00179 25662 ft 400 kts 38°
2026-04-24 13:33 49.11006 35.03090 25125 ft 397 kts 38°
2026-04-24 13:33 49.12997 35.05994 24620 ft 395 kts 38°
2026-04-24 13:33 49.14941 35.08859 24132 ft 393 kts 39°
2026-04-24 13:33 49.16891 35.11764 23654 ft 390 kts 39°
2026-04-24 13:34 49.18825 35.14668 23183 ft 389 kts 39°
2026-04-24 13:34 49.20747 35.17561 22643 ft 386 kts 39°
2026-04-24 13:34 49.22657 35.20434 22149 ft 384 kts 39°
2026-04-24 13:34 49.24555 35.23286 21680 ft 381 kts 39°
2026-04-24 13:35 49.26437 35.26123 21202 ft 378 kts 39°
2026-04-24 13:35 49.28300 35.28934 20731 ft 376 kts 39°
2026-04-24 13:35 49.30155 35.31733 20269 ft 373 kts 39°
2026-04-24 13:35 49.31972 35.34476 19798 ft 370 kts 39°
2026-04-24 13:36 49.33800 35.37238 19332 ft 368 kts 39°
2026-04-24 13:36 49.35614 35.39986 18887 ft 365 kts 39°
2026-04-24 13:36 49.37416 35.42720 18425 ft 363 kts 39°
2026-04-24 13:36 49.39206 35.45437 17931 ft 361 kts 39°
2026-04-24 13:37 49.40971 35.48159 17402 ft 359 kts 40°
2026-04-24 13:37 49.42709 35.50890 16879 ft 356 kts 41°
2026-04-24 13:37 49.44429 35.53615 16364 ft 354 kts 41°
2026-04-24 13:37 49.46132 35.56318 15870 ft 352 kts 41°
2026-04-24 13:38 49.47833 35.59013 15372 ft 349 kts 41°
2026-04-24 13:38 49.49494 35.61646 14886 ft 347 kts 41°
2026-04-24 13:38 49.51170 35.64303 14415 ft 345 kts 41°
2026-04-24 13:38 49.52837 35.66942 13942 ft 343 kts 42°
2026-04-24 13:39 49.54499 35.69570 13412 ft 342 kts 42°
2026-04-24 13:39 49.56152 35.72187 12883 ft 340 kts 42°
2026-04-24 13:39 49.57794 35.74791 12356 ft 338 kts 42°
2026-04-24 13:39 49.59423 35.77379 11874 ft 335 kts 42°
2026-04-24 13:40 49.61040 35.79953 11381 ft 333 kts 42°
2026-04-24 13:40 49.62626 35.82475 10949 ft 330 kts 42°
2026-04-24 13:40 49.64186 35.84963 10815 ft 317 kts 42°
2026-04-24 13:40 49.65690 35.87368 10679 ft 305 kts 42°
2026-04-24 13:41 49.67138 35.89683 10546 ft 294 kts 42°
2026-04-24 13:41 49.68545 35.91930 10295 ft 289 kts 42°
2026-04-24 13:41 49.69934 35.94149 9980 ft 286 kts 41°
2026-04-24 13:41 49.71316 35.96356 9623 ft 285 kts 41°
2026-04-24 13:42 49.72686 35.98555 9262 ft 283 kts 42°
2026-04-24 13:42 49.74030 36.00712 8896 ft 282 kts 41°
2026-04-24 13:42 49.75386 36.02889 8520 ft 280 kts 41°
2026-04-24 13:42 49.76736 36.05057 8165 ft 279 kts 42°
2026-04-24 13:43 49.78076 36.07213 7815 ft 277 kts 41°
2026-04-24 13:43 49.79409 36.09359 7465 ft 276 kts 41°
2026-04-24 13:43 49.80774 36.11423 7110 ft 272 kts 34°
2026-04-24 13:43 49.82329 36.12997 6992 ft 265 kts 22°
2026-04-24 13:44 49.84041 36.14048 6999 ft 264 kts 11°
2026-04-24 13:44 49.85813 36.14536 6994 ft 261 kts 360°
2026-04-24 13:44 49.87613 36.14468 6994 ft 258 kts 349°
2026-04-24 13:44 49.89385 36.14113 6990 ft 256 kts 349°
2026-04-24 13:45 49.91152 36.13761 6964 ft 254 kts 349°
2026-04-24 13:45 49.92908 36.13408 6654 ft 254 kts 349°
2026-04-24 13:45 49.94655 36.13054 6333 ft 252 kts 349°
2026-04-24 13:45 49.96390 36.12703 6042 ft 249 kts 349°
2026-04-24 13:46 49.98074 36.12362 5988 ft 250 kts 349°
2026-04-24 13:46 49.99810 36.12009 5992 ft 252 kts 349°
2026-04-24 13:46 50.01556 36.11691 5993 ft 254 kts 356°
2026-04-24 13:46 50.03293 36.12269 6004 ft 264 kts 24°
2026-04-24 13:47 50.04684 36.14134 5826 ft 270 kts 52°
2026-04-24 13:47 50.05316 36.16895 5444 ft 276 kts 79°
2026-04-24 13:47 50.05559 36.19866 5047 ft 278 kts 79°
2026-04-24 13:47 50.05794 36.22839 4708 ft 276 kts 80°
2026-04-24 13:48 50.06029 36.25796 4359 ft 275 kts 80°
2026-04-24 13:48 50.06264 36.28746 3982 ft 275 kts 79°
2026-04-24 13:48 50.06497 36.31643 3650 ft 273 kts 79°
2026-04-24 13:48 50.06733 36.34561 3315 ft 271 kts 79°
2026-04-24 13:49 50.06968 36.37469 3020 ft 269 kts 79°
2026-04-24 13:49 50.07201 36.40356 2977 ft 270 kts 79°
2026-04-24 13:49 50.07436 36.43265 2982 ft 271 kts 79°
2026-04-24 13:49 50.07664 36.46101 2978 ft 257 kts 79°
2026-04-24 13:50 50.07877 36.48790 2979 ft 248 kts 78°
2026-04-24 13:50 50.08076 36.51420 2998 ft 244 kts 82°
2026-04-24 13:50 50.07788 36.54019 2974 ft 249 kts 114°
2026-04-24 13:50 50.06718 36.56053 2980 ft 249 kts 146°
2026-04-24 13:51 50.05135 36.57004 2987 ft 243 kts 175°
2026-04-24 13:51 50.03457 36.57309 2986 ft 243 kts 177°
2026-04-24 13:51 50.01775 36.57619 2980 ft 244 kts 177°
2026-04-24 13:51 50.00085 36.57935 2984 ft 245 kts 176°
2026-04-24 13:52 49.98970 36.58147 2980 ft 243 kts 176°
2026-04-24 13:52 49.96813 36.58001 2971 ft 226 kts 206°
2026-04-24 13:52 49.95917 36.57248 2942 ft 217 kts 223°
2026-04-24 13:52 49.94820 36.54862 2529 ft 201 kts 259°
2026-04-24 13:53 49.94599 36.52741 2485 ft 199 kts 268°
2026-04-24 13:53 49.94429 36.50601 2485 ft 200 kts 267°
2026-04-24 13:53 49.94258 36.48459 2481 ft 200 kts 267°
2026-04-24 13:53 49.94087 36.46337 2490 ft 192 kts 267°
2026-04-24 13:54 49.93979 36.45020 2400 ft 180 kts 268°
2026-04-24 13:54 49.93830 36.43180 2194 ft 163 kts 268°
2026-04-24 13:54 49.93696 36.41532 2007 ft 148 kts 268°
2026-04-24 13:54 49.93529 36.39446 1729 ft 144 kts 269°
2026-04-24 13:55 49.93406 36.37924 1524 ft 140 kts 268°
2026-04-24 13:55 49.93324 36.36905 1387 ft 141 kts 269°
2026-04-24 13:55 49.93203 36.35412 1189 ft 139 kts 270°
2026-04-24 13:55 49.93100 36.33890 1012 ft 144 kts 268°
2026-04-24 13:56 49.92954 36.32350 790 ft 143 kts 265°
2026-04-24 13:56 49.92825 36.30813 587 ft 147 kts 263°
2026-04-24 13:56 49.92711 36.29338 519 ft 120 kts 264°
2026-04-24 13:56 49.92625 36.28322 509 ft 70 kts 262°
2026-04-24 13:57 49.92576 36.27721 500 ft 47 kts 262°
2026-04-24 13:57 49.92551 36.27426 499 ft 10 kts 262°
2026-04-24 13:57 49.92510 36.27370 499 ft 9 kts 184°
2026-04-24 13:57 49.92451 36.27398 499 ft 9 kts 146°
2026-04-24 13:58 49.92413 36.27477 500 ft 9 kts 107°
2026-04-24 13:58 49.92411 36.27579 501 ft 10 kts 84°
2026-04-24 13:58 49.92419 36.27682 502 ft 10 kts 82°
2026-04-24 13:58 49.92431 36.27818 503 ft 15 kts 82°
2026-04-24 13:59 49.92444 36.27981 504 ft 15 kts 83°
2026-04-24 13:59 49.92426 36.28099 506 ft 10 kts 150°
2026-04-24 13:59 49.92355 36.28119 506 ft 11 kts 173°
2026-04-24 13:59 49.92282 36.28159 506 ft 12 kts 152°
2026-04-24 14:00 49.92212 36.28222 506 ft 12 kts 149°
2026-04-24 14:00 49.92157 36.28255 507 ft 3 kts 214°
2026-04-24 14:00 49.92135 36.28213 506 ft 3 kts 235°
2026-04-24 14:00 49.92131 36.28203 506 ft 0 kts 237°